Flight Track Log - Related Links

Times and Time Zones

All times are in EDT time to prevent confusion due to time zone crossing. See the SWA3924 flight status page for this flight to view local times or setup timezone preferences in your user account.

Time Position Orientation Groundspeed Altitude Reporting Facility
EDT Latitude Longitude Course Direction KTS MPH feet Rate Location/Type
Fri 10:40:39 PM 37.7333 -122.2500 304° West 158 182 1,300  Level Northern Cal TRACON
Fri 10:42:59 PM 37.8164 -122.4083 304° West 261 300 6,200 2,567 Climbing Oakland Center
Fri 10:44:00 PM 37.8789 -122.4419 337° Northwest 278 320 9,900 2,902 Climbing Oakland Center
Fri 10:45:01 PM 37.9611 -122.4214 11° North 305 351 12,100 2,537 Climbing Oakland Center
Fri 10:46:03 PM 38.0539 -122.4244 359° North 339 390 15,100 2,829 Climbing Oakland Center
Fri 10:47:04 PM 38.1522 -122.4297 358° North 355 409 17,900 2,410 Climbing Oakland Center
Fri 10:48:05 PM 38.2583 -122.4361 357° North 380 437 20,000 1,820 Climbing Oakland Center
Fri 10:49:06 PM 38.3658 -122.5244 327° Northwest 387 445 21,600 1,475 Climbing Oakland Center
Fri 10:50:07 PM 38.4725 -122.5339 356° North 409 471 23,000 1,820 Climbing Oakland Center
Fri 10:51:08 PM 38.5861 -122.4917 16° North 425 489 25,300 2,213 Climbing Oakland Center
Fri 10:52:09 PM 38.7000 -122.4494 16° North 428 493 27,500 2,000 Climbing Oakland Center
Fri 10:53:11 PM 38.8194 -122.4039 17° North 438 504 29,400 1,756 Climbing Oakland Center
Fri 10:54:12 PM 38.9467 -122.3744 10° North 463 533 31,100 1,770 Climbing Oakland Center
Fri 10:55:13 PM 39.0742 -122.3836 357° North 463 533 33,000 934 Climbing Oakland Center
Fri 10:56:14 PM 39.2031 -122.3925 357° North 463 533 33,000  Level Oakland Center
Fri 10:57:15 PM 39.3308 -122.4003 357° North 461 531 33,000  Level Oakland Center
Fri 10:58:17 PM 39.4589 -122.4075 358° North 463 533 33,000 732 Level Oakland Center
Fri 10:59:18 PM 39.5908 -122.4186 356° North 464 534 34,500 1,574 Climbing Oakland Center
Fri 11:00:19 PM 39.7178 -122.4275 357° North 459 528 36,200 1,672 Climbing Oakland Center
Fri 11:01:20 PM 39.8433 -122.4375 357° North 453 521 37,900 1,623 Climbing Oakland Center
Fri 11:02:21 PM 39.9678 -122.4444 358° North 446 513 39,500 1,024 Climbing Oakland Center
Fri 11:03:23 PM 40.0894 -122.4569 356° North 435 501 40,000 244 Climbing Oakland Center
Fri 11:04:24 PM 40.2175 -122.4642 358° North 448 516 40,000  Level Oakland Center
Fri 11:05:25 PM 40.3411 -122.4719 357° North 440 506 40,000  Level Oakland Center
Fri 11:06:26 PM 40.4875 -122.4817 357° North 439 505 40,000  Level Oakland Center
Fri 11:07:27 PM 40.6106 -122.4894 357° North 443 510 40,000  Level Oakland Center
Fri 11:08:29 PM 40.7308 -122.4969 357° North 434 499 40,000  Level Oakland Center
Fri 11:09:30 PM 40.8514 -122.5056 357° North 433 498 40,000  Level Oakland Center
Fri 11:10:11 PM 40.9233 -122.5106 357° North 433 498 40,000  Level Seattle Center
Fri 11:11:11 PM 41.0428 -122.5203 356° North 431 496 40,000  Level Seattle Center
Fri 11:12:12 PM 41.1625 -122.5286 357° North 431 496 40,000  Level Seattle Center
Fri 11:13:13 PM 41.2853 -122.5367 357° North 439 505 40,000  Level Seattle Center
Fri 11:14:13 PM 41.4094 -122.5458 357° North 445 512 40,000  Level Seattle Center
Fri 11:15:14 PM 41.5325 -122.5525 358° North 444 511 40,000  Level Seattle Center
Fri 11:16:15 PM 41.6575 -122.5628 356° North 445 512 40,000  Level Seattle Center
Fri 11:17:16 PM 41.8083 -122.5753 356° North 449 517 40,000  Level Seattle Center
Fri 11:18:16 PM 41.9347 -122.5858 356° North 450 518 40,000  Level Seattle Center
Fri 11:19:17 PM 42.0617 -122.5947 357° North 454 522 40,000  Level Seattle Center
Fri 11:20:18 PM 42.1864 -122.6025 357° North 448 516 40,000  Level Seattle Center
Fri 11:21:18 PM 42.3125 -122.6106 357° North 448 516 40,000  Level Seattle Center
Fri 11:22:19 PM 42.4381 -122.6217 356° North 448 516 40,000  Level Seattle Center
Fri 11:23:20 PM 42.5628 -122.6300 357° North 447 514 40,000  Level Seattle Center
Fri 11:24:20 PM 42.6886 -122.6397 357° North 449 517 40,000  Level Seattle Center
Fri 11:25:21 PM 42.7961 -122.6481 357° North 447 514 40,000  Level Seattle Center
Fri 11:26:21 PM 42.9219 -122.6581 357° North 448 516 40,000  Level Seattle Center
Fri 11:27:22 PM 43.0472 -122.6697 356° North 450 518 40,000  Level Seattle Center
Fri 11:28:23 PM 43.1736 -122.6783 357° North 453 521 40,000  Level Seattle Center
Fri 11:29:24 PM 43.3261 -122.6894 357° North 455 524 40,000  Level Seattle Center
Fri 11:30:24 PM 43.4519 -122.6986 357° North 456 525 40,000  Level Seattle Center
Fri 11:31:25 PM 43.5800 -122.7067 357° North 460 529 40,000  Level Seattle Center
Fri 11:32:26 PM 43.7075 -122.7169 357° North 460 529 40,000 -992 Level Seattle Center
Fri 11:33:26 PM 43.8325 -122.7269 357° North 456 525 38,000 -2,678 Descending Seattle Center
Fri 11:34:27 PM 43.9583 -122.7283 360° North 454 522 34,600 -3,443 Descending Seattle Center
Fri 11:35:28 PM 44.0914 -122.7181 North 469 540 31,000 -3,148 Descending Seattle Center
Fri 11:36:29 PM 44.2183 -122.7114 North 464 534 28,200 -2,678 Descending Seattle Center
Fri 11:37:29 PM 44.3406 -122.7036 North 442 509 25,600 -2,529 Descending Seattle Center
Fri 11:38:30 PM 44.4608 -122.6989 North 435 501 23,100 -2,410 Descending Seattle Center
Fri 11:39:31 PM 44.5739 -122.6922 North 416 479 20,700 -2,483 Descending Seattle Center
Fri 11:40:26 PM 44.6908 -122.6850 North 398 458 18,300 -2,281 Descending Seattle Center
Fri 11:41:32 PM 44.7894 -122.6814 North 387 445 16,100 -2,418 Descending Seattle Center
Fri 11:42:40 PM 44.9247 -122.6731 North 374 430 12,900 -2,361 Descending Seattle Center
Fri 11:43:34 PM 44.9958 -122.6708 North 371 427 11,300 -1,409 Descending Seattle Center
Fri 11:44:35 PM 45.1083 -122.6589 North 356 410 10,200 -1,140 Descending Seattle Center
Fri 11:45:35 PM 45.1853 -122.6492 North 302 348 9,000 -1,339 Descending Seattle Center
Fri 11:46:36 PM 45.2636 -122.6408 North 286 329 7,500 -1,426 Descending Seattle Center
Fri 11:47:37 PM 45.3425 -122.6336 North 285 328 6,100 -1,190 Descending Seattle Center
Fri 11:48:37 PM 45.3831 -122.5517 55° Northeast 264 304 5,100 -843 Descending Seattle Center
Fri 11:49:38 PM 45.3994 -122.4636 75° East 256 295 4,400 -1,082 Descending Seattle Center
Fri 11:50:39 PM 45.4478 -122.4156 35° Northeast 232 267 2,900 -942 Descending Seattle Center
Fri 11:51:39 PM 45.5064 -122.3900 17° North 185 213 2,500 -417 Descending Seattle Center
Fri 11:52:34 PM 45.5333 -122.4375 309° West 172 198 2,100 -639 Descending Seattle Center
Fri 11:53:41 PM 45.5561 -122.4961 299° West 152 175 1,200 -744 Descending Seattle Center
Fri 11:54:43 PM 45.5728 -122.5389 299° West 159 183 500 -677 Descending Seattle Center
Fri 11:56:00 PM 45.5833 -122.5833 301° West  Level FlightAware Approximate

Login

Don't have an account? Register now (free) for customized features, flight alerts, and more!